Location: Unspecified
(0.0000°N, 0.0000°E)
Time: 03:52:33
(UTC+00:00)

Tiangong 2 - Pass Details

Date: 27 April 2017
Orbit: 379 x 390 km, 42.8° (Epoch: 27 May)

Event Time Altitude Azimuth Distance (km) Brightness Sun altitude
Exits shadow 05:27:29 - 224° (SW) 1,678 3.8 -7.3°
Reaches altitude 10° 05:28:12 10° 223° (SW) 1,382 3.4 -7.2°
Maximum altitude 05:31:19 85° 135° (SE) 380 1.1 -6.4°
Drops below altitude 10° 05:34:25 10° 46° (NE) 1,378 5.0 -5.6°
Sets 05:36:28 0° 45° (NE) 2,227 6.1 -5.1°
